DW0372 Weather Reports


Display with metric or nautical units.
time (UTC)temp
F
wind
direction
speed
MPH
gust
MPH
rain 1hr
in
rain 24hr
in
rain mn
in
humidity
%
barometer
mb
20260505003505 78 233 3.0 7.0 0.00 0.00 0.00 35 1009.3
20260505003016 78 236 4.0 7.0 0.00 0.00 0.00 35 1009.3
20260505002506 78 239 3.0 6.0 0.00 0.00 0.00 35 1009.3
20260505002005 78 244 3.0 5.0 0.00 0.00 0.00 36 1009.3
20260505001517 78 226 0.0 6.0 0.00 0.00 0.00 36 1009.3
20260505001005 79 249 1.0 6.0 0.00 0.00 0.00 36 1009.3
20260505000506 79 242 0.0 6.0 0.00 0.00 0.00 36 1009.4
20260505000017 79 248 0.0 6.0 0.00 0.00 0.00 35 1009.4
20260504235506 79 227 0.0 5.0 0.00 0.00 0.00 36 1009.4
20260504235003 79 229 0.0 5.0 0.00 0.00 0.00 34 1009.4
20260504234508 80 219 0.0 6.0 0.00 0.00 0.00 35 1009.5
20260504234001 79 225 1.0 8.0 0.00 0.00 0.00 36 1009.5
20260504233503 79 227 2.0 8.0 0.00 0.00 0.00 35 1009.5
20260504233010 79 231 1.0 6.0 0.00 0.00 0.00 34 1009.6
20260504232504 79 238 3.0 5.0 0.00 0.00 0.00 35 1009.5
20260504232002 80 240 0.0 6.0 0.00 0.00 0.00 36 1009.5
20260504231004 79 231 0.0 9.0 0.00 0.00 0.00 35 1009.6
20260504230502 79 258 0.0 9.0 0.00 0.00 0.00 36 1009.6
20260504230007 80 259 2.0 9.0 0.00 0.00 0.00 35 1009.6
20260504225503 80 238 0.0 5.0 0.00 0.00 0.00 36 1009.6
20260504225004 80 230 1.0 8.0 0.00 0.00 0.00 36 1009.6
20260504224508 80 236 2.0 8.0 0.00 0.00 0.00 34 1009.7
20260504224003 79 224 0.0 8.0 0.00 0.00 0.00 35 1009.7
20260504223503 80 231 2.0 7.0 0.00 0.00 0.00 36 1009.8
20260504223003 79 233 1.0 9.0 0.00 0.00 0.00 36 1009.8
20260504222503 79 235 4.0 9.0 0.00 0.00 0.00 35 1009.9
20260504222004 81 223 1.0 6.0 0.00 0.00 0.00 35 1010.0
20260504221516 80 248 0.0 6.0 0.00 0.00 0.00 33 1010.0
20260504221003 79 219 1.0 7.0 0.00 0.00 0.00 35 1010.1
20260504220504 79 245 0.0 7.0 0.00 0.00 0.00 33 1010.1
20260504220004 79 224 2.0 7.0 0.00 0.00 0.00 32 1010.2
20260504215505 80 268 1.0 7.0 0.00 0.00 0.00 33 1010.2
20260504215002 80 245 1.0 7.0 0.00 0.00 0.00 33 1010.2
20260504214503 80 271 1.0 8.0 0.00 0.00 0.00 34 1010.1
20260504214003 79 240 1.0 8.0 0.00 0.00 0.00 33 1010.2
20260504213503 79 274 0.0 8.0 0.00 0.00 0.00 34 1010.2
20260504213006 79 225 2.0 8.0 0.00 0.00 0.00 33 1010.2
20260504212503 80 260 0.0 1.0 0.00 0.00 0.00 36 1010.2
20260504212003 80 4 0.0 5.0 0.00 0.00 0.00 31 1010.2
20260504211504 79 250 1.0 6.0 0.00 0.00 0.00 33 1010.2
20260504211004 79 236 1.0 8.0 0.00 0.00 0.00 31 1010.2
20260504210504 79 243 2.0 8.0 0.00 0.00 0.00 35 1010.2
20260504210010 80 258 1.0 7.0 0.00 0.00 0.00 33 1010.2
20260504205504 80 225 0.0 7.0 0.00 0.00 0.00 34 1010.2
20260504205007 79 235 0.0 8.0 0.00 0.00 0.00 34 1010.3
20260504204505 78 209 2.0 8.0 0.00 0.00 0.00 35 1010.3
20260504204004 78 228 3.0 6.0 0.00 0.00 0.00 37 1010.4
20260504203503 78 248 1.0 6.0 0.00 0.00 0.00 34 1010.4
20260504203006 79 246 0.0 8.0 0.00 0.00 0.00 39 1010.4
20260504202506 78 288 0.0 9.0 0.00 0.00 0.00 38 1010.4
20260504202004 77 219 3.0 9.0 0.00 0.00 0.00 37 1010.4
20260504201509 77 248 3.0 6.0 0.00 0.00 0.00 39 1010.4
20260504201003 77 127 1.0 7.0 0.00 0.00 0.00 41 1010.5
20260504200503 77 231 3.0 7.0 0.00 0.00 0.00 37 1010.5
20260504200016 77 238 0.0 2.0 0.00 0.00 0.00 42 1010.5
20260504195504 77 240 0.0 6.0 0.00 0.00 0.00 43 1010.6
20260504195007 76 205 1.0 6.0 0.00 0.00 0.00 42 1010.6
20260504194509 77 120 0.0 5.0 0.00 0.00 0.00 40 1010.5
20260504194004 75 234 0.0 5.0 0.00 0.00 0.00 40 1010.6
20260504193007 76 165 1.0 6.0 0.00 0.00 0.00 42 1010.6
20260504192503 75 233 1.0 7.0 0.00 0.00 0.00 41 1010.7
20260504192005 75 236 4.0 7.0 0.00 0.00 0.00 40 1010.7
20260504191505 75 237 2.0 6.0 0.00 0.00 0.00 41 1010.8
20260504191003 76 224 0.0 9.0 0.00 0.00 0.00 43 1010.8
20260504190506 75 247 2.0 9.0 0.00 0.00 0.00 42 1010.8
20260504190012 75 229 1.0 5.0 0.00 0.00 0.00 41 1010.8
20260504185503 74 169 0.0 5.0 0.00 0.00 0.00 41 1010.9
20260504185003 74 135 0.0 5.0 0.00 0.00 0.00 44 1011.0
20260504184527 75 238 2.0 5.0 0.00 0.00 0.00 44 1011.0
20260504184006 74 232 0.0 5.0 0.00 0.00 0.00 47 1011.1
20260504183503 73 233 0.0 6.0 0.00 0.00 0.00 45 1011.1
20260504183023 74 185 1.0 6.0 0.00 0.00 0.00 47 1011.1
20260504182506 74 233 0.0 1.0 0.00 0.00 0.00 45 1011.1
20260504182008 73 237 0.0 1.0 0.00 0.00 0.00 48 1011.1
20260504181509 73 237 0.0 4.0 0.00 0.00 0.00 49 1011.1
20260504181003 72 236 0.0 7.0 0.00 0.00 0.00 48 1011.1
20260504180503 72 238 0.0 7.0 0.00 0.00 0.00 49 1011.0
20260504180008 72 232 0.0 4.0 0.00 0.00 0.00 49 1011.0
20260504175502 72 233 0.0 4.0 0.00 0.00 0.00 49 1011.1
20260504175002 71 238 0.0 4.0 0.00 0.00 0.00 48 1011.2
20260504174516 70 238 1.0 4.0 0.00 0.00 0.00 47 1011.1
20260504174005 72 231 0.0 3.0 0.00 0.00 0.00 49 1011.0
20260504173506 71 236 0.0 5.0 0.00 0.00 0.00 49 1011.0
20260504173020 70 235 0.0 5.0 0.00 0.00 0.00 48 1011.1
20260504172507 70 219 0.0 1.0 0.00 0.00 0.00 49 1011.0
20260504172003 70 248 0.0 1.0 0.00 0.00 0.00 52 1011.0
20260504171521 70 252 0.0 4.0 0.00 0.00 0.00 53 1011.0
20260504171011 69 249 0.0 4.0 0.00 0.00 0.00 50 1011.0
20260504170503 70 254 0.0 1.0 0.00 0.00 0.00 50 1010.9
20260504151005 59 11 0.0 1.0 0.00 0.00 0.00 76 1010.3
20260504150510 58 11 0.0 1.0 0.00 0.00 0.00 76 1010.2
20260504141004 53 13 0.0 0.0 0.00 0.00 0.00 84 1010.0
20260504140502 53 13 0.0 0.0 0.00 0.00 0.00 83 1010.0
20260504130502 51 13 0.0 0.0 0.00 0.00 0.00 88 1009.7
20260504110503 53 13 0.0 0.0 0.00 0.00 0.00 84 1009.7
20260504100504 55 13 0.0 0.0 0.00 0.00 0.00 82 1009.6
20260504082002 58 13 0.0 0.0 0.00 0.00 0.00 78 1009.5
20260504081518 58 13 0.0 0.0 0.00 0.00 0.00 75 1009.5
20260504081007 58 13 0.0 0.0 0.00 0.00 0.00 75 1009.6
20260504080507 59 13 0.0 0.0 0.00 0.00 0.00 76 1009.6
20260504050504 64 13 0.0 0.0 0.00 0.00 0.00 62 1009.7
20260504050013 64 13 0.0 0.0 0.00 0.00 0.00 62 1009.7
20260504045503 65 13 0.0 0.0 0.00 0.00 0.00 60 1009.7
20260504045005 65 13 0.0 0.0 0.00 0.00 0.00 62 1009.6
20260504044520 65 13 0.0 0.0 0.00 0.00 0.00 61 1009.6
20260504044003 66 13 0.0 0.0 0.00 0.00 0.00 60 1009.6
20260504043504 65 13 0.0 0.0 0.00 0.00 0.00 58 1009.6
20260504043007 66 13 0.0 0.0 0.00 0.00 0.00 58 1009.6
20260504042503 66 13 0.0 0.0 0.00 0.00 0.00 57 1009.5
20260504042004 67 13 0.0 1.0 0.00 0.00 0.00 54 1009.5
20260504041508 67 13 0.0 2.0 0.00 0.00 0.00 54 1009.5
20260504041003 67 6 0.0 2.0 0.00 0.00 0.00 53 1009.5
20260504040504 68 6 0.0 1.0 0.00 0.00 0.00 53 1009.4
20260504040008 68 4 0.0 1.0 0.00 0.00 0.00 53 1009.4
20260504035507 68 4 0.0 4.0 0.00 0.00 0.00 53 1009.4
20260504035004 68 6 0.0 6.0 0.00 0.00 0.00 53 1009.4
20260504034503 68 14 1.0 6.0 0.00 0.00 0.00 53 1009.4
20260504034003 69 359 0.0 3.0 0.00 0.00 0.00 54 1009.4
20260504033504 69 8 0.0 3.0 0.00 0.00 0.00 54 1009.4
20260504033019 69 8 0.0 3.0 0.00 0.00 0.00 54 1009.4
20260504032503 69 9 0.0 2.0 0.00 0.00 0.00 54 1009.3
20260504032003 70 9 0.0 3.0 0.00 0.00 0.00 53 1009.3
20260504031521 70 11 0.0 3.0 0.00 0.00 0.00 53 1009.3
20260504031002 70 12 0.0 3.0 0.00 0.00 0.00 52 1009.3
20260504030503 71 12 0.0 5.0 0.00 0.00 0.00 52 1009.3
20260504030009 71 343 1.0 5.0 0.00 0.00 0.00 52 1009.3
20260504025504 71 10 0.0 3.0 0.00 0.00 0.00 52 1009.3
20260504022505 73 360 2.0 6.0 0.00 0.00 0.00 50 1009.3
20260504022007 73 354 3.0 6.0 0.00 0.00 0.00 50 1009.3
20260504021511 74 6 2.0 6.0 0.00 0.00 0.00 50 1009.4
20260504021003 74 351 2.0 6.0 0.00 0.00 0.00 49 1009.4
20260504020507 75 359 1.0 5.0 0.00 0.00 0.00 49 1009.4
20260504020034 75 357 1.0 7.0 0.00 0.00 0.00 48 1009.4
20260504015504 75 359 0.0 7.0 0.00 0.00 0.00 48 1009.4
20260504015005 76 357 3.0 6.0 0.00 0.00 0.00 47 1009.4
20260504014510 76 359 2.0 6.0 0.00 0.00 0.00 48 1009.4
20260504014002 76 3 2.0 6.0 0.00 0.00 0.00 47 1009.4
20260504013508 76 8 2.0 6.0 0.00 0.00 0.00 47 1009.4
20260504013019 76 359 2.0 6.0 0.00 0.00 0.00 46 1009.4
20260504012505 77 341 3.0 7.0 0.00 0.00 0.00 45 1009.5
20260504011515 77 312 1.0 6.0 0.00 0.00 0.00 46 1009.6
20260504011007 77 330 1.0 6.0 0.00 0.00 0.00 45 1009.7
20260504010506 77 356 4.0 8.0 0.00 0.00 0.00 45 1009.7
20260504010016 77 348 1.0 8.0 0.00 0.00 0.00 45 1009.7
20260504005507 78 1 2.0 7.0 0.00 0.00 0.00 44 1009.8
20260504005009 78 340 3.0 6.0 0.00 0.00 0.00 46 1009.9
20260504004531 78 351 0.0 5.0 0.00 0.00 0.00 45 1010.0
20260504004005 78 347 1.0 5.0 0.00 0.00 0.00 45 1009.9